Location: Unspecified
(48.8656°N, 0.0000°E)
Time: 11:35:12
(UTC+00:00)

Tiangong 2 - Pass Details

Date: 20 May 2019
Orbit: 376 x 389 km, 42.8° (Epoch: 17 June)

Event Time Altitude Azimuth Distance (km) Brightness Sun altitude
Rises 20:55:48 0° 225° (SW) 2,229 4.9 -10.2°
Reaches altitude 10° 20:58:20 10° 203° (SSW) 1,379 3.6 -10.5°
Maximum altitude 21:00:24 17° 161° (SSE) 1,058 2.7 -10.7°
Enters shadow 21:00:34 17° 157° (SSE) 1,061 2.7 -10.7°
